• In Italy
  • List of Countries
  • For 7 days
  • Water Temperature
  • Satellite Maps
  • Weather Map
  • Weather Widgets
  • user-avatar
    Login

    Hourly Weather Gold Coast

    Today, 23 July, Sunday

    Time Temperature Precipitation Wind Pressure Humidity
    00:00 +12°C° 0 mm 1 mps 762 mmHg 86%
    01:00 +10°C° 0 mm 2 mps 762 mmHg 87%
    02:00 +10°C° 0 mm 2 mps 762 mmHg 88%
    03:00 +10°C° 0 mm 2 mps 762 mmHg 88%
    04:00 +10°C° 0 mm 3 mps 762 mmHg 89%
    05:00 +10°C° 0 mm 3 mps 762 mmHg 88%
    06:00 +10°C° 0 mm 3 mps 762 mmHg 87%
    07:00 +9°C° 0 mm 3 mps 762 mmHg 86%
    08:00 +12°C° 0 mm 3 mps 762 mmHg 72%
    09:00 +16°C° 0 mm 3 mps 762 mmHg 58%
    10:00 +19°C° 0 mm 4 mps 762 mmHg 44%
    11:00 +20°C° 0 mm 4 mps 761 mmHg 40%
    12:00 +22°C° 0 mm 4 mps 761 mmHg 36%
    13:00 +24°C° 0 mm 3 mps 760 mmHg 31%
    14:00 +24°C° 0 mm 3 mps 760 mmHg 34%
    15:00 +22°C° 0 mm 3 mps 759 mmHg 37%
    16:00 +22°C° 0 mm 3 mps 759 mmHg 39%
    17:00 +20°C° 0 mm 3 mps 760 mmHg 42%
    18:00 +17°C° 0 mm 3 mps 760 mmHg 44%
    19:00 +14°C° 0 mm 3 mps 760 mmHg 47%
    20:00 +14°C° 0 mm 3 mps 761 mmHg 48%
    21:00 +13°C° 0 mm 3 mps 761 mmHg 48%
    22:00 +12°C° 0 mm 3 mps 761 mmHg 49%
    23:00 +11°C° 0 mm 3 mps 761 mmHg 50%

    Tomorrow, 24 July, Monday

    Time Temperature Precipitation Wind Pressure Humidity
    00:00 +11°C° 0 mm 3 mps 761 mmHg 51%
    01:00 +10°C° 0 mm 3 mps 761 mmHg 52%
    02:00 +10°C° 0 mm 3 mps 761 mmHg 51%
    03:00 +10°C° 0 mm 2 mps 761 mmHg 50%
    04:00 +10°C° 0 mm 2 mps 760 mmHg 49%
    05:00 +10°C° 0 mm 2 mps 761 mmHg 48%
    06:00 +10°C° 0 mm 2 mps 761 mmHg 48%
    07:00 +10°C° 0 mm 2 mps 762 mmHg 47%
    08:00 +14°C° 0 mm 2 mps 762 mmHg 43%
    09:00 +18°C° 0 mm 2 mps 762 mmHg 38%
    10:00 +22°C° 0 mm 1 mps 762 mmHg 34%
    11:00 +23°C° 0 mm 1 mps 762 mmHg 32%
    12:00 +25°C° 0 mm 1 mps 761 mmHg 30%
    13:00 +26°C° 0 mm 2 mps 761 mmHg 28%
    14:00 +25°C° 0 mm 2 mps 761 mmHg 32%
    15:00 +24°C° 0 mm 2 mps 761 mmHg 37%
    16:00 +23°C° 0 mm 2 mps 760 mmHg 41%
    17:00 +20°C° 0 mm 2 mps 761 mmHg 49%
    18:00 +18°C° 0 mm 2 mps 762 mmHg 56%
    19:00 +15°C° 0 mm 1 mps 762 mmHg 64%
    20:00 +14°C° 0 mm 1 mps 762 mmHg 65%
    21:00 +14°C° 0 mm 1 mps 763 mmHg 66%
    22:00 +13°C° 0 mm 1 mps 763 mmHg 67%
    23:00 +13°C° 0 mm 2 mps 763 mmHg 65%

    Day after tomorrow, 25 July, Tuesday

    Time Temperature Precipitation Wind Pressure Humidity
    00:00 +12°C° 0 mm 2 mps 763 mmHg 63%
    01:00 +12°C° 0 mm 2 mps 763 mmHg 61%
    02:00 +10°C° 0 mm 2 mps 763 mmHg 61%
    03:00 +10°C° 0 mm 2 mps 763 mmHg 61%
    04:00 +10°C° 0 mm 2 mps 762 mmHg 61%
    05:00 +10°C° 0 mm 2 mps 763 mmHg 62%
    06:00 +10°C° 0 mm 2 mps 763 mmHg 63%
    07:00 +10°C° 0 mm 2 mps 764 mmHg 64%
    08:00 +14°C° 0 mm 2 mps 764 mmHg 57%
    09:00 +18°C° 0 mm 1 mps 764 mmHg 50%
    10:00 +21°C° 0 mm 1 mps 764 mmHg 43%
    11:00 +22°C° 0 mm 1 mps 764 mmHg 40%
    12:00 +23°C° 0 mm 1 mps 763 mmHg 37%
    13:00 +24°C° 0 mm 1 mps 762 mmHg 34%
    14:00 +24°C° 0 mm 2 mps 762 mmHg 38%
    15:00 +23°C° 0 mm 2 mps 762 mmHg 41%
    16:00 +21°C° 0 mm 2 mps 761 mmHg 45%
    17:00 +19°C° 0 mm 2 mps 762 mmHg 56%
    18:00 +17°C° 0 mm 2 mps 762 mmHg 67%
    19:00 +15°C° 0 mm 2 mps 763 mmHg 78%
    20:00 +14°C° 0 mm 2 mps 763 mmHg 80%
    21:00 +14°C° 0 mm 2 mps 763 mmHg 82%
    22:00 +13°C° 0 mm 2 mps 764 mmHg 84%
    23:00 +13°C° 0 mm 2 mps 763 mmHg 83%

    26 July, Wednesday

    Time Temperature Precipitation Wind Pressure Humidity
    00:00 +12°C° 0 mm 2 mps 763 mmHg 82%
    01:00 +12°C° 0 mm 2 mps 763 mmHg 81%
    02:00 +12°C° 0 mm 2 mps 763 mmHg 77%
    03:00 +10°C° 0 mm 2 mps 763 mmHg 73%
    04:00 +10°C° 0 mm 2 mps 762 mmHg 69%
    05:00 +10°C° 0 mm 2 mps 763 mmHg 67%
    06:00 +10°C° 0 mm 2 mps 763 mmHg 64%
    07:00 +9°C° 0 mm 2 mps 764 mmHg 62%
    08:00 +14°C° 0 mm 2 mps 764 mmHg 53%
    09:00 +17°C° 0 mm 2 mps 764 mmHg 45%
    10:00 +20°C° 0 mm 2 mps 763 mmHg 37%
    11:00 +23°C° 0 mm 2 mps 763 mmHg 34%
    12:00 +24°C° 0 mm 2 mps 762 mmHg 30%
    13:00 +26°C° 0 mm 2 mps 761 mmHg 27%
    14:00 +26°C° 0 mm 2 mps 761 mmHg 31%
    15:00 +25°C° 0 mm 2 mps 760 mmHg 36%
    16:00 +25°C° 0 mm 3 mps 760 mmHg 40%
    17:00 +22°C° 0 mm 3 mps 760 mmHg 45%
    18:00 +19°C° 0 mm 3 mps 761 mmHg 49%
    19:00 +17°C° 0 mm 3 mps 761 mmHg 53%
    20:00 +17°C° 0 mm 3 mps 761 mmHg 54%
    21:00 +16°C° 0 mm 3 mps 762 mmHg 55%
    22:00 +14°C° 0 mm 3 mps 762 mmHg 56%
    23:00 +14°C° 0 mm 3 mps 762 mmHg 56%

    27 July, Thursday

    Time Temperature Precipitation Wind Pressure Humidity
    00:00 +14°C° 0 mm 3 mps 762 mmHg 57%
    01:00 +13°C° 0 mm 3 mps 761 mmHg 57%
    02:00 +13°C° 0 mm 3 mps 761 mmHg 59%
    03:00 +12°C° 0 mm 4 mps 761 mmHg 60%
    04:00 +12°C° 0 mm 4 mps 762 mmHg 61%
    05:00 +12°C° 0 mm 4 mps 762 mmHg 63%
    06:00 +11°C° 0 mm 4 mps 763 mmHg 64%
    07:00 +11°C° 0 mm 3 mps 763 mmHg 66%
    08:00 +14°C° 0 mm 3 mps 763 mmHg 58%
    09:00 +17°C° 0 mm 3 mps 763 mmHg 50%
    10:00 +20°C° 0 mm 3 mps 764 mmHg 41%
    11:00 +21°C° 0 mm 3 mps 763 mmHg 37%
    12:00 +22°C° 0 mm 3 mps 762 mmHg 33%
    13:00 +24°C° 0 mm 3 mps 762 mmHg 29%
    14:00 +24°C° 0 mm 3 mps 762 mmHg 33%
    15:00 +22°C° 0 mm 4 mps 762 mmHg 37%
    16:00 +21°C° 0 mm 4 mps 762 mmHg 40%
    17:00 +19°C° 0 mm 4 mps 763 mmHg 50%
    18:00 +15°C° 0 mm 4 mps 763 mmHg 59%
    19:00 +13°C° 0 mm 4 mps 764 mmHg 68%
    20:00 +12°C° 0 mm 4 mps 764 mmHg 70%
    21:00 +12°C° 0 mm 3 mps 764 mmHg 73%
    22:00 +11°C° 0 mm 3 mps 764 mmHg 75%
    23:00 +11°C° 0 mm 3 mps 764 mmHg 76%

    28 July, Friday

    Time Temperature Precipitation Wind Pressure Humidity
    00:00 +11°C° 0 mm 3 mps 764 mmHg 78%
    01:00 +10°C° 0 mm 3 mps 764 mmHg 80%
    02:00 +10°C° 0 mm 3 mps 764 mmHg 80%
    03:00 +10°C° 0 mm 3 mps 764 mmHg 80%
    04:00 +10°C° 0 mm 3 mps 764 mmHg 81%
    05:00 +10°C° 0 mm 3 mps 764 mmHg 80%
    06:00 +10°C° 0 mm 2 mps 764 mmHg 80%
    07:00 +10°C° 0 mm 2 mps 765 mmHg 80%
    08:00 +14°C° 0 mm 2 mps 765 mmHg 71%
    09:00 +16°C° 0 mm 2 mps 765 mmHg 62%
    10:00 +20°C° 0 mm 1 mps 765 mmHg 53%
    11:00 +21°C° 0 mm 1 mps 764 mmHg 49%
    12:00 +22°C° 0 mm 1 mps 763 mmHg 44%
    13:00 +23°C° 0 mm 2 mps 762 mmHg 40%
    14:00 +23°C° 0 mm 2 mps 762 mmHg 42%
    15:00 +23°C° 0 mm 2 mps 762 mmHg 44%
    16:00 +21°C° 0 mm 3 mps 762 mmHg 46%
    17:00 +19°C° 0 mm 3 mps 762 mmHg 55%
    18:00 +17°C° 0 mm 3 mps 762 mmHg 63%
    19:00 +14°C° 0 mm 3 mps 763 mmHg 71%
    20:00 +14°C° 0 mm 3 mps 763 mmHg 75%
    21:00 +13°C° 0 mm 3 mps 763 mmHg 79%
    22:00 +13°C° 0 mm 3 mps 763 mmHg 82%
    23:00 +12°C° 0 mm 3 mps 763 mmHg 81%
    Show more